Location: Dover
(39.1580°N, 75.5250°W)
Time: 06:19:57
(UTC-04:00)

ISS - All Passes

Search period start: 30 September 2014 00:00
Search period end: 10 October 2014 00:00
Orbit: 413 x 416 km, 51.6° (Epoch: 30 September)

Date Brightness Start Highest point End Pass type
(mag) Time Alt. Az. Time Alt. Az. Time Alt. Az.
30 Sep - 00:00:00 19° NNE 23:59:45 21° NNE 00:01:21 10° NE night (unlit)
30 Sep - 01:34:55 10° NNW 01:35:55 11° N 01:36:54 10° N night (unlit)
30 Sep - 03:12:39 10° N 03:13:50 11° N 03:15:01 10° NNE night (unlit)
30 Sep - 04:48:16 10° NW 04:51:20 33° NNE 04:54:23 10° E visible
30 Sep - 06:25:06 10° WNW 06:27:57 26° SW 06:30:47 10° SSE visible
30 Sep - 21:30:29 10° S 21:32:46 17° SE 21:35:03 10° E night (unlit)
30 Sep - 23:05:58 10° WSW 23:09:12 47° NW 23:12:26 10° NE night (unlit)
01 Oct - 00:44:53 10° NW 00:46:32 13° NNW 00:48:12 10° NNE night (unlit)
01 Oct - 02:24:06 10° N 02:24:26 10° N 02:24:46 10° NNE night (unlit)
01 Oct - 03:59:24 10° NNW 04:02:06 22° NNE 04:04:48 10° E visible
01 Oct - 05:35:44 10° WNW 05:38:58 50° SW 05:42:11 10° SSE visible
01 Oct - 22:16:45 10° SW 22:20:04 85° NW 22:23:24 10° NE night (unlit)
01 Oct - 23:54:57 10° WNW 23:57:11 17° NNW 23:59:25 10° NNE night (unlit)
02 Oct - 03:10:34 10° NNW 03:12:48 17° NNE 03:15:02 10° ENE night (unlit)
02 Oct - 04:46:34 10° NW 04:49:55 86° NE 04:53:13 10° SE visible
02 Oct - 21:27:45 10° SW 21:30:59 51° SE 21:34:14 10° ENE night (unlit)
02 Oct - 23:05:10 10° W 23:07:51 22° NNW 23:10:33 10° NNE night (unlit)
03 Oct - 00:45:13 10° N 00:45:32 10° N 00:45:50 10° N night (unlit)
03 Oct - 02:21:45 10° NNW 02:23:25 13° NNE 02:25:06 10° NE night (unlit)
03 Oct - 03:57:31 10° NW 04:00:45 48° NE 04:03:59 10° ESE visible
03 Oct - 05:34:56 10° W 05:37:11 17° SW 05:39:25 10° S visible
03 Oct - 20:39:05 10° SSW 20:41:57 27° SE 20:44:49 10° ENE visible
03 Oct - 22:15:31 10° W 22:18:34 33° NNW 22:21:37 10° NE night (unlit)
03 Oct - 23:54:54 10° NNW 23:56:04 11° N 23:57:14 10° N night (unlit)
04 Oct - 01:32:58 10° N 01:33:58 11° N 01:34:59 10° NNE night (unlit)
04 Oct - 03:08:32 10° NW 03:11:31 30° NNE 03:14:29 10° E night (unlit)
04 Oct - 04:45:13 10° WNW 04:48:11 31° SW 04:51:08 10° SSE visible
04 Oct - 19:50:57 10° SSE 19:52:57 15° SE 19:54:57 10° E visible
04 Oct - 21:26:03 10° WSW 21:29:19 54° NW 21:32:36 10° NE visible
04 Oct - 23:04:48 10° NW 23:06:36 14° NNW 23:08:25 10° NNE night (unlit)
05 Oct - 02:19:35 10° NNW 02:22:11 21° NNE 02:24:47 10° ENE night (unlit)
05 Oct - 03:55:49 10° WNW 03:59:06 58° SW 04:02:22 10° SE night (unlit)
05 Oct - 20:36:48 10° SW 20:40:07 83° SE 20:43:27 10° NE visible
05 Oct - 22:14:49 10° WNW 22:17:10 18° NNW 22:19:31 10° NNE night (unlit)
06 Oct - 01:30:40 10° NNW 01:32:46 16° NNE 01:34:52 10° ENE night (unlit)
06 Oct - 03:06:36 10° NW 03:09:56 74° NE 03:13:14 10° ESE night (unlit)
06 Oct - 04:45:19 10° WSW 04:46:10 11° SW 04:47:01 10° SW night (unlit)
06 Oct - 19:47:48 10° SSW 19:50:57 43° SE 19:54:08 10° ENE visible
06 Oct - 21:24:58 10° W 21:27:45 24° NNW 21:30:33 10° NNE visible
06 Oct - 23:04:48 10° NNW 23:05:23 10° N 23:05:58 10° N night (unlit)
07 Oct - 00:41:46 10° NNW 00:43:17 13° NNE 00:44:48 10° NE night (unlit)
07 Oct - 02:17:29 10° NW 02:20:40 42° NNE 02:23:50 10° ESE night (unlit)
07 Oct - 03:54:39 10° W 03:57:09 20° SW 03:59:37 10° S night (unlit)
07 Oct - 18:59:09 10° S 19:01:51 23° SE 19:04:33 10° ENE visible
07 Oct - 20:35:17 10° W 20:38:24 36° NNW 20:41:31 10° NE visible
07 Oct - 22:14:30 10° NW 22:15:50 12° NNW 22:17:10 10° NNE night (unlit)
07 Oct - 23:52:55 10° N 23:53:44 11° N 23:54:33 10° NNE night (unlit)
08 Oct - 01:28:25 10° NNW 01:31:19 27° NNE 01:34:12 10° E night (unlit)
08 Oct - 03:04:58 10° WNW 03:08:03 36° SW 03:11:07 10° SSE night (unlit)
08 Oct - 18:11:11 10° SSE 18:12:46 13° SE 18:14:22 10° E daylight
08 Oct - 19:45:47 10° WSW 19:49:04 63° NW 19:52:23 10° NE visible
08 Oct - 21:24:20 10° NW 21:26:17 15° NNW 21:28:15 10° NNE visible
09 Oct - 00:39:23 10° NNW 00:41:53 19° NNE 00:44:21 10° ENE night (unlit)
09 Oct - 02:15:32 10° NW 02:18:51 70° SW 02:22:09 10° SE night (unlit)
09 Oct - 18:56:30 10° SW 18:59:48 71° SE 19:03:07 10° NE visible
09 Oct - 20:34:18 10° WNW 20:36:46 19° NNW 20:39:15 10° NNE visible
09 Oct - 23:50:24 10° NNW 23:52:22 15° NNE 23:54:19 10° NE night (unlit)
